Location: Albany
(35.0000°S, 118.0000°E)
Time: 06:39:01
(UTC-04:00)

Amateur Radio Satellites - All Passes

Search period start: 03 July 2015 06:09
Search period end: 04 July 2015 06:09
Location: Albany, 35.0000°S, 118.0000°E

Satellite Date Start Highest point End Downlink Frequencies (MHz)
Time Altitude Azimuth
CUTE-I 03 Jul 06:17:02 06:22:24 63° 79° (E) 06:27:43 437.470
Cosmos 2504 03 Jul 06:30:19 06:38:36 44° 255° (WSW) 06:46:59 435.465 / 435.565
CUBESAT XI-V 03 Jul 06:36:22 06:40:06 23° 274° (W) 06:43:44 437.345
AUBIESAT-1 03 Jul 06:36:44 06:39:01 14° 118° (ESE) 06:41:31 437.475
BRITE-PL 03 Jul 06:37:03 06:39:01 12° 92° (E) 06:41:25 437.365/2234.400
Cubesat XI-IV 03 Jul 06:50:47 06:56:07 61° 254° (WSW) 07:01:23 437.490
STRAND 1 03 Jul 06:50:54 06:55:54 52° 280° (W) 07:00:56 437.568
VERMONT LUNAR 03 Jul 06:52:20 06:55:24 39° 30° (NNE) 06:58:29 437.305
BEESAT 3 03 Jul 06:55:01 06:58:55 84° 60° (ENE) 07:02:51 437.485
DANDE 03 Jul 07:00:36 07:03:08 18° 96° (E) 07:06:17 436.750
BEESAT 2 03 Jul 07:04:54 07:08:50 84° 61° (ENE) 07:12:48 435.950
M-CUBED/EXP-1 PRIME 03 Jul 07:07:13 07:11:30 33° 113° (ESE) 07:15:49 437.505
O/OREOS (USA 219) 03 Jul 07:23:34 07:28:09 62° 248° (WSW) 07:32:47 437.305
PRISM 03 Jul 07:32:35 07:35:03 15° 272° (W) 07:37:19 437.425
RS-15 03 Jul 07:32:55 07:37:50 13° 172° (S) 07:42:52 29.354- 29.394
GONETS M04 03 Jul 07:41:26 07:48:32 30° 94° (E) 07:56:00
CUSAT 1 03 Jul 07:48:27 07:52:22 67° 258° (WSW) 07:57:43 437.405
ISS 03 Jul 07:54:39 07:57:55 68° 222° (SW) 08:01:14 145.825
HO-68 03 Jul 07:56:10 08:02:19 31° 85° (E) 08:08:34 435.675
GOMX 1 03 Jul 07:56:13 08:01:31 47° 82° (E) 08:06:50 467.674
CUTE-I 03 Jul 07:58:55 08:02:00 15° 245° (WSW) 08:04:48 437.470
AUBIESAT-1 03 Jul 08:08:32 08:13:17 63° 285° (WNW) 08:18:01 437.475
CINEMA 3 03 Jul 08:09:31 08:12:41 17° 90° (E) 08:16:01 145.822/145.860
BRITE-PL 03 Jul 08:12:29 08:18:06 77° 257° (WSW) 08:23:49 437.365/2234.400
AIST 2 03 Jul 08:13:02 08:17:05 73° 240° (WSW) 08:21:09 435.215
COMPASS 1 03 Jul 08:13:40 08:16:39 19° 87° (E) 08:19:44 437.405
CUTE 1.7 + AOD 2 03 Jul 08:17:57 08:21:54 35° 83° (E) 08:25:49 437.475
CANX-2 03 Jul 08:20:57 08:25:04 43° 82° (E) 08:29:07 2200.000
PHONESAT 2.4 03 Jul 08:24:21 08:27:41 39° 30° (NNE) 08:31:04 2401.200-2431.200
VERMONT LUNAR 03 Jul 08:29:11 08:32:21 45° 195° (SSW) 08:35:31 437.305
ANTELSAT 03 Jul 08:36:23 08:36:45 10° 115° (ESE) 08:37:27 437.575/2403.000
M-CUBED/EXP-1 PRIME 03 Jul 08:42:18 08:46:16 24° 279° (W) 08:50:07 437.505
DANDE 03 Jul 08:42:54 08:46:02 24° 248° (WSW) 08:49:54 436.750
TIGRISAT 03 Jul 08:47:30 08:49:41 14° 113° (ESE) 08:52:09 435.000
DOVE 4 03 Jul 08:47:55 08:53:20 85° 256° (WSW) 08:58:39 437.250
Cosmos 2499 03 Jul 08:56:51 09:02:17 19° 98° (E) 09:08:18 435.465 / 435.565
CUBEBUG 2 03 Jul 09:07:25 09:11:41 32° 84° (E) 09:15:51 437.445
SEEDS 03 Jul 09:08:31 09:12:45 67° 256° (WSW) 09:16:55 437.485
ZACube-1 03 Jul 09:16:45 09:20:24 24° 86° (E) 09:24:04 437.345
DUCHIFAT 1 03 Jul 09:19:26 09:19:39 10° 114° (ESE) 09:20:09 145.980
POLYITAN 1 03 Jul 09:21:16 09:22:45 12° 113° (ESE) 09:24:29 437.675
AAUSAT CUBESAT 2 03 Jul 09:23:25 09:27:37 67° 256° (WSW) 09:31:44 437.432
UNISAT 6 03 Jul 09:24:18 09:28:31 35° 108° (ESE) 09:32:53 437.425
Oscar 11 03 Jul 09:28:25 09:32:44 56° 80° (E) 09:36:58 145.826/435.025
ISS 03 Jul 09:33:54 09:34:54 11° 203° (SSW) 09:35:49 145.825
GOMX 1 03 Jul 09:35:11 09:39:18 21° 249° (WSW) 09:43:16 467.674
GONETS M04 03 Jul 09:36:35 09:45:02 51° 257° (WSW) 09:53:33
BUGSAT 1 03 Jul 09:41:49 09:43:08 12° 113° (ESE) 09:44:42 437.445
HO-68 03 Jul 09:43:22 09:50:13 45° 248° (WSW) 09:56:55 435.675
CINEMA 3 03 Jul 09:45:17 09:50:10 46° 254° (WSW) 09:54:51 145.822/145.860
RS-15 03 Jul 09:45:44 09:55:42 33° 139° (SE) 10:05:29 29.354- 29.394
HUMSAT D 03 Jul 09:48:04 09:51:20 21° 87° (E) 09:54:38 437.325/437.525
COMPASS 1 03 Jul 09:48:42 09:52:22 28° 252° (WSW) 09:55:54 437.405
QB50P2 03 Jul 09:49:02 09:52:32 25° 109° (ESE) 09:56:08 145.880/145.840
DELFI C3 03 Jul 09:49:14 09:53:18 69° 79° (E) 09:57:18 145.870
POPSAT HIP 1 03 Jul 09:50:10 09:53:37 25° 109° (ESE) 09:57:13 437.405
FUNcube-1 03 Jul 09:52:55 09:57:29 62° 80° (E) 10:01:52 145.935
CUTE 1.7 + AOD 2 03 Jul 09:54:46 09:57:33 17° 249° (WSW) 10:00:09 437.475
CANX-2 03 Jul 09:58:21 10:00:38 14° 248° (WSW) 10:02:41 2200.000
UWE-3 03 Jul 10:01:20 10:06:04 78° 258° (WSW) 10:10:36 435.000/436.395/437.385
PHONESAT 2.4 03 Jul 10:02:14 10:05:43 49° 195° (SSW) 10:09:11 2401.200-2431.200
50 SAT 03 Jul 10:04:56 10:07:08 15° 88° (E) 10:09:30 437.505
VERMONT LUNAR 03 Jul 10:06:47 10:09:42 29° 178° (S) 10:12:37 437.305
ANTELSAT 03 Jul 10:08:16 10:12:56 75° 281° (W) 10:17:43 437.575/2403.000
TIGRISAT 03 Jul 10:21:23 10:25:58 55° 279° (W) 10:30:40 435.000
VELOX 1 03 Jul 10:23:43 10:27:19 24° 85° (E) 10:31:00 145.980
QB50P1 03 Jul 10:28:28 10:32:43 74° 104° (ESE) 10:37:02 145.935-145.965
DX 1 03 Jul 10:38:04 10:42:31 68° 78° (ENE) 10:46:54 434.975-435.025
NANOSAT C BR1 03 Jul 10:43:16 10:47:31 74° 281° (WNW) 10:51:50 145.865
CUBEBUG 2 03 Jul 10:44:28 10:48:10 22° 249° (WSW) 10:51:40 437.445
Cosmos 2499 03 Jul 10:45:46 10:54:37 80° 262° (W) 11:03:35 435.465 / 435.565
DUCHIFAT 1 03 Jul 10:50:46 10:54:58 61° 280° (W) 10:59:15 145.980
ZACube-1 03 Jul 10:52:50 10:56:44 27° 251° (WSW) 11:00:28 437.345
POLYITAN 1 03 Jul 10:54:02 10:58:13 53° 280° (W) 11:02:30 437.675
UKube-1 03 Jul 11:01:14 11:05:38 70° 255° (WSW) 11:09:59 .
UNISAT 6 03 Jul 11:01:55 11:05:24 20° 273° (W) 11:08:48 437.425
Oscar 11 03 Jul 11:06:54 11:08:27 11° 247° (WSW) 11:09:45 145.826/435.025
AISAT 03 Jul 11:09:36 11:14:11 86° 76° (ENE) 11:18:42 437.250
BUGSAT 1 03 Jul 11:14:16 11:18:12 47° 279° (W) 11:22:13 437.445
HUMSAT D 03 Jul 11:23:22 11:27:03 27° 251° (WSW) 11:30:36 437.325/437.525
QB50P2 03 Jul 11:24:55 11:28:22 23° 274° (W) 11:31:46 145.880/145.840
POPSAT HIP 1 03 Jul 11:26:00 11:29:27 23° 274° (W) 11:32:51 437.405
FUNcube-1 03 Jul 11:31:43 11:33:16 11° 246° (WSW) 11:34:31 145.935
CUBEBUG 1 03 Jul 11:31:59 11:36:29 80° 79° (ENE) 11:40:56 437.445
ESTCUBE 1 03 Jul 11:36:39 11:41:14 77° 256° (WSW) 11:45:46 437.505/2401.250
50 SAT 03 Jul 11:38:19 11:41:54 32° 253° (WSW) 11:45:24 437.505
PHONESAT 2.4 03 Jul 11:40:56 11:44:10 32° 179° (S) 11:47:25 2401.200-2431.200
Oscar 19 03 Jul 11:43:40 11:47:02 18° 113° (ESE) 11:50:38 437.125/150
VERMONT LUNAR 03 Jul 11:43:48 11:47:01 56° 162° (SSE) 11:50:11 437.305
TISAT 1 03 Jul 11:51:27 11:54:46 22° 86° (E) 11:58:10 437.305
RS-15 03 Jul 11:57:53 12:09:15 72° 295° (WNW) 12:20:04 29.354- 29.394
VELOX 1 03 Jul 12:00:00 12:03:50 27° 251° (WSW) 12:07:36 145.980
SPROUT 03 Jul 12:39:23 12:43:45 61° 255° (WSW) 12:48:03 437.525
Cosmos 2499 03 Jul 12:44:41 12:49:26 14° 242° (WSW) 12:53:30 435.465 / 435.565
AO-7 03 Jul 13:08:30 13:10:48 12° 128° (SE) 13:13:42 29.400- 29.500
BEESAT 03 Jul 13:15:05 13:19:14 29° 84° (E) 13:23:27 436.000
Gurwin Techsat 1B 03 Jul 13:16:06 13:21:02 41° 108° (ESE) 13:26:04 435.225
YUBILEINY 03 Jul 13:18:55 13:26:37 34° 108° (ESE) 13:34:25 435.215
PHONESAT 2.4 03 Jul 13:19:04 13:22:35 59° 162° (SSE) 13:26:04 2401.200-2431.200
Oscar 19 03 Jul 13:21:01 13:26:02 48° 279° (W) 13:31:07 437.125/150
VERMONT LUNAR 03 Jul 13:21:03 13:23:49 26° 327° (NNW) 13:26:33 437.305
TISAT 1 03 Jul 13:26:50 13:30:31 27° 251° (WSW) 13:34:06 437.305
ITAMSAT 1 03 Jul 13:29:39 13:34:40 53° 106° (ESE) 13:39:47 435.822/435.867
SWISSCUBE 03 Jul 13:30:07 13:34:46 47° 81° (E) 13:39:23 437.505
ITUPSAT 1 03 Jul 13:34:47 13:39:27 47° 81° (E) 13:44:04 437.325
Cosmos 2491 03 Jul 13:36:55 13:43:07 23° 96° (E) 13:49:46 435.465 / 435.565
JAS-2 03 Jul 13:50:33 13:57:15 33° 112° (ESE) 14:04:01 435.910
RS-15 03 Jul 14:16:04 14:19:57 12° 279° (W) 14:22:34 29.354- 29.394
PCSat 03 Jul 14:17:44 14:21:45 22° 73° (ENE) 14:25:56 145.827
ISS 03 Jul 14:24:58 14:27:57 30° 145° (SE) 14:30:56 145.825
AIST 1 03 Jul 14:26:34 14:29:40 20° 91° (E) 14:32:55
HORYU 2 03 Jul 14:45:04 14:49:18 41° 107° (ESE) 14:53:37 437.375
KKS-1 03 Jul 14:49:21 14:53:49 51° 80° (E) 14:58:12 437.445
BEESAT 03 Jul 14:53:02 14:56:59 25° 250° (WSW) 15:00:47 436.000
AO-7 03 Jul 14:54:02 15:02:12 63° 111° (ESE) 15:10:26 29.400- 29.500
Gurwin Techsat 1B 03 Jul 14:57:06 15:01:12 21° 273° (W) 15:05:09 435.225
PHONESAT 2.4 03 Jul 14:57:24 15:00:30 28° 327° (NNW) 15:03:32 2401.200-2431.200
SWISSCUBE 03 Jul 15:09:15 15:12:15 16° 247° (WSW) 15:15:03 437.505
ITAMSAT 1 03 Jul 15:11:25 15:14:35 15° 271° (W) 15:17:29 435.822/435.867
ITUPSAT 1 03 Jul 15:13:58 15:16:58 16° 247° (WSW) 15:19:45 437.325
YUBILEINY 03 Jul 15:15:21 15:23:41 47° 270° (W) 15:31:49 435.215
BEESAT 3 03 Jul 15:17:10 15:19:58 18° 129° (SE) 15:22:52 437.485
BEESAT 2 03 Jul 15:27:37 15:30:27 19° 129° (SE) 15:33:24 435.950
Cosmos 2491 03 Jul 15:30:43 15:39:21 64° 260° (W) 15:48:05 435.465 / 435.565
JAS-2 03 Jul 15:34:24 15:41:59 50° 278° (W) 15:49:30 435.910
STARS 03 Jul 15:44:26 15:48:55 61° 255° (WSW) 15:53:19 437.465
SO-50 03 Jul 15:46:56 15:51:03 33° 66° (ENE) 15:55:07 436.795
O/OREOS (USA 219) 03 Jul 15:59:36 16:01:41 13° 124° (SE) 16:03:57 437.305
PCSat 03 Jul 15:59:46 16:04:54 42° 238° (WSW) 16:10:04 145.827
ISS 03 Jul 16:01:37 16:04:16 22° 310° (NW) 16:06:49 145.825
AIST 1 03 Jul 16:03:33 16:07:11 25° 256° (WSW) 16:10:47
HORYU 2 03 Jul 16:23:18 16:26:10 16° 272° (W) 16:28:50 437.375
JUGNU 03 Jul 16:26:24 16:29:35 15° 9° (N) 16:32:50 437.505
Cosmos 2504 03 Jul 16:27:19 16:35:33 63° 101° (E) 16:43:09 435.465 / 435.565
KKS-1 03 Jul 16:27:42 16:30:02 14° 247° (WSW) 16:32:07 437.445
Cubesat XI-IV 03 Jul 16:31:39 16:35:04 18° 114° (ESE) 16:38:43 437.490
MOZHAYETS 4 03 Jul 16:34:38 16:39:16 72° 78° (ENE) 16:43:50
AIST 2 03 Jul 16:37:56 16:41:27 26° 127° (SE) 16:45:01 435.215
CUSAT 1 03 Jul 16:47:02 16:51:01 15° 118° (ESE) 16:55:35 437.405
AO-7 03 Jul 16:48:56 16:55:35 25° 274° (W) 17:01:55 29.400- 29.500
BEESAT 3 03 Jul 16:54:25 16:58:00 32° 294° (WNW) 17:01:34 437.485
BEESAT 2 03 Jul 17:04:59 17:08:36 32° 294° (WNW) 17:12:11 435.950
SRMSAT 03 Jul 17:17:26 17:19:25 12° 14° (NNE) 17:21:32 437.500
SO-50 03 Jul 17:27:56 17:31:37 23° 231° (SW) 17:35:09 436.795
CUTE-I 03 Jul 17:35:33 17:40:52 74° 104° (ESE) 17:46:16 437.470
O/OREOS (USA 219) 03 Jul 17:37:03 17:41:34 55° 286° (WNW) 17:45:59 437.305
DANDE 03 Jul 17:40:49 17:47:36 29° 110° (ESE) 17:54:54 436.750
GONETS M04 03 Jul 17:58:24 18:00:31 11° 121° (ESE) 18:03:29
Cubesat XI-IV 03 Jul 18:09:36 18:14:48 51° 280° (W) 18:20:02 437.490
JUGNU 03 Jul 18:14:03 18:17:54 18° 359° (N) 18:21:44 437.505
AIST 2 03 Jul 18:16:32 18:19:56 24° 292° (WNW) 18:23:14 435.215
Cosmos 2504 03 Jul 18:22:14 18:28:15 22° 263° (W) 18:33:36 435.465 / 435.565
HO-68 03 Jul 18:23:20 18:27:27 17° 120° (ESE) 18:31:59 435.675
CUSAT 1 03 Jul 18:26:46 18:35:02 77° 100° (E) 18:43:09 437.405
CUBESAT XI-V 03 Jul 18:35:09 18:39:50 72° 256° (WSW) 18:44:31 437.345
GOMX 1 03 Jul 19:01:46 19:05:37 30° 109° (ESE) 19:09:48 467.674
SRMSAT 03 Jul 19:04:02 19:07:54 18° 4° (N) 19:11:47 437.500
STRAND 1 03 Jul 19:04:37 19:09:46 70° 79° (E) 19:14:55 437.568
CUTE 1.7 + AOD 2 03 Jul 19:08:23 19:11:16 18° 110° (ESE) 19:14:19 437.475
CINEMA 3 03 Jul 19:10:14 19:11:06 11° 115° (ESE) 19:12:17 145.822/145.860
CANX-2 03 Jul 19:11:09 19:14:26 22° 109° (ESE) 19:17:50 2200.000
PRISM 03 Jul 19:15:58 19:20:09 83° 257° (WSW) 19:24:17 437.425
CUTE-I 03 Jul 19:19:59 19:21:37 11° 268° (W) 19:22:50 437.470
BRITE-PL 03 Jul 19:20:36 19:24:53 85° 103° (ESE) 19:29:32 437.365/2234.400
DANDE 03 Jul 19:23:06 19:31:14 61° 274° (W) 19:39:33 436.750
DOVE 4 03 Jul 19:50:09 19:54:36 65° 105° (ESE) 19:59:26 437.250
GONETS M04 03 Jul 19:50:29 19:59:25 71° 99° (E) 20:08:15
AUBIESAT-1 03 Jul 19:56:05 19:56:31 10° 87° (E) 19:57:12 437.475
SEEDS 03 Jul 19:56:51 20:01:02 53° 105° (ESE) 20:05:17 437.485
CUBEBUG 2 03 Jul 20:02:55 20:06:08 20° 111° (ESE) 20:09:35 437.445
JUGNU 03 Jul 20:03:18 20:06:12 14° 349° (N) 20:09:01 437.505
HO-68 03 Jul 20:07:12 20:14:25 84° 285° (WNW) 20:21:44 435.675
AAUSAT CUBESAT 2 03 Jul 20:10:31 20:14:37 51° 105° (ESE) 20:18:47 437.432
ZACube-1 03 Jul 20:10:39 20:12:53 14° 113° (ESE) 20:15:23 437.345
CUSAT 1 03 Jul 20:11:03 20:17:01 21° 266° (W) 20:22:30 437.405
Oscar 11 03 Jul 20:20:07 20:23:52 29° 108° (ESE) 20:27:44 145.826/435.025
M-CUBED/EXP-1 PRIME 03 Jul 20:26:51 20:30:22 34° 79° (E) 20:33:39 437.505
DELFI C3 03 Jul 20:33:27 20:36:52 27° 108° (ESE) 20:40:23 145.870
COMPASS 1 03 Jul 20:35:39 20:39:53 65° 280° (W) 20:44:09 437.405
HUMSAT D 03 Jul 20:38:40 20:39:46 11° 113° (ESE) 20:41:07 437.325/437.525
GOMX 1 03 Jul 20:40:26 20:43:51 21° 272° (W) 20:47:20 467.674
Cosmos 2499 03 Jul 20:42:58 20:49:47 30° 109° (ESE) 20:56:19 435.465 / 435.565
CUTE 1.7 + AOD 2 03 Jul 20:43:00 20:46:57 33° 277° (W) 20:50:54 437.475
CINEMA 3 03 Jul 20:43:04 20:47:39 72° 280° (W) 20:52:30 145.822/145.860
FUNcube-1 03 Jul 20:45:15 20:49:16 32° 108° (ESE) 20:53:25 145.935
STRAND 1 03 Jul 20:46:09 20:48:27 13° 245° (WSW) 20:50:26 437.568
CANX-2 03 Jul 20:46:28 20:50:13 27° 275° (W) 20:53:56 2200.000
SRMSAT 03 Jul 20:52:36 20:56:23 17° 354° (N) 21:00:10 437.500
UWE-3 03 Jul 20:54:39 20:59:06 56° 105° (ESE) 21:03:44 435.000/436.395/437.385
VELOX 1 03 Jul 21:19:18 21:21:42 15° 112° (ESE) 21:24:19 145.980
AUBIESAT-1 03 Jul 21:28:02 21:31:39 39° 248° (WSW) 21:35:00 437.475
DX 1 03 Jul 21:30:29 21:34:29 37° 108° (ESE) 21:38:35 434.975-435.025
SEEDS 03 Jul 21:36:08 21:37:13 11° 269° (W) 21:38:00 437.485
CUBEBUG 2 03 Jul 21:38:19 21:42:33 36° 276° (W) 21:46:55 437.445
ZACube-1 03 Jul 21:44:25 21:48:49 50° 278° (W) 21:53:20 437.345
GONETS M04 03 Jul 21:49:09 21:55:30 21° 263° (W) 22:01:22
AAUSAT CUBESAT 2 03 Jul 21:49:20 21:50:35 11° 269° (W) 21:51:32 437.432
UKube-1 03 Jul 21:52:29 21:56:46 63° 105° (ESE) 22:01:07 .
Oscar 11 03 Jul 21:56:42 22:00:05 21° 274° (W) 22:03:22 145.826/435.025
HO-68 03 Jul 22:00:50 22:03:19 11° 267° (W) 22:05:08 435.675
M-CUBED/EXP-1 PRIME 03 Jul 22:02:46 22:04:52 14° 242° (WSW) 22:06:44 437.505
AISAT 03 Jul 22:04:01 22:08:16 50° 106° (ESE) 22:12:38 437.250
ANTELSAT 03 Jul 22:04:17 22:08:19 30° 85° (E) 22:12:17 437.575/2403.000
DELFI C3 03 Jul 22:08:54 22:11:57 20° 274° (W) 22:14:56 145.870
HUMSAT D 03 Jul 22:10:45 22:15:01 59° 280° (W) 22:19:23 437.325/437.525
TIGRISAT 03 Jul 22:16:48 22:21:10 40° 82° (E) 22:25:24 435.000
QB50P1 03 Jul 22:18:14 22:20:48 16° 88° (E) 22:23:34 145.935-145.965
50 SAT 03 Jul 22:18:15 22:22:16 84° 104° (ESE) 22:26:21 437.505
FUNcube-1 03 Jul 22:22:16 22:25:39 20° 273° (W) 22:28:59 145.935
CUBEBUG 1 03 Jul 22:24:53 22:28:58 42° 107° (ESE) 22:33:08 437.445
NANOSAT C BR1 03 Jul 22:32:07 22:35:32 23° 86° (E) 22:39:01 145.865
ESTCUBE 1 03 Jul 22:32:45 22:37:13 65° 104° (ESE) 22:41:45 437.505/2401.250
UWE-3 03 Jul 22:34:19 22:36:05 12° 269° (W) 22:37:34 435.000/436.395/437.385
Cosmos 2499 03 Jul 22:35:40 22:43:13 45° 269° (W) 22:50:06 435.465 / 435.565
DUCHIFAT 1 03 Jul 22:39:11 22:42:51 27° 84° (E) 22:46:33 145.980
TISAT 1 03 Jul 22:42:26 22:43:40 11° 113° (ESE) 22:45:09 437.305
POLYITAN 1 03 Jul 22:42:58 22:46:52 32° 84° (E) 22:50:46 437.675
SRMSAT 03 Jul 22:43:49 22:44:52 10° 345° (NNW) 22:45:47 437.500
VELOX 1 03 Jul 22:53:41 22:57:55 43° 279° (W) 23:02:11 145.980
UNISAT 6 03 Jul 22:55:57 23:00:37 69° 256° (WSW) 23:05:06 437.425
BUGSAT 1 03 Jul 22:59:46 23:03:34 30° 84° (E) 23:07:23 437.445
DX 1 03 Jul 23:08:10 23:10:55 16° 272° (W) 23:13:30 434.975-435.025
PCSat 03 Jul 23:10:23 23:11:34 11° 137° (SE) 23:13:01 145.827
QB50P2 03 Jul 23:12:27 23:16:50 75° 79° (E) 23:21:09 145.880/145.840
POPSAT HIP 1 03 Jul 23:13:23 23:17:46 74° 79° (ENE) 23:22:05 437.405
SPROUT 03 Jul 23:29:54 23:34:10 66° 104° (ESE) 23:38:31 437.525
ANTELSAT 03 Jul 23:41:17 23:44:57 22° 250° (WSW) 23:48:23 437.575/2403.000
AISAT 03 Jul 23:43:17 23:45:13 12° 270° (W) 23:46:53 437.250
QB50P1 03 Jul 23:52:48 23:56:51 37° 253° (WSW) 00:00:48 145.935-145.965
TIGRISAT 03 Jul 23:54:29 23:57:35 17° 248° (WSW) 00:00:27 435.000
CUBEBUG 1 04 Jul 00:03:16 00:05:35 14° 271° (W) 00:07:43 437.445
RS-15 04 Jul 00:06:22 00:15:11 25° 76° (ENE) 00:24:35 29.354- 29.394
NANOSAT C BR1 04 Jul 00:07:41 00:11:20 26° 251° (WSW) 00:14:51 145.865
TISAT 1 04 Jul 00:14:53 00:19:00 53° 280° (W) 00:23:12 437.305
DUCHIFAT 1 04 Jul 00:15:07 00:18:31 22° 250° (WSW) 00:21:48 145.980
BEESAT 04 Jul 00:18:41 00:22:28 24° 111° (ESE) 00:26:23 436.000
POLYITAN 1 04 Jul 00:19:24 00:22:34 19° 249° (WSW) 00:25:34 437.675
SO-50 04 Jul 00:22:27 00:24:36 14° 134° (SE) 00:26:58 436.795
SWISSCUBE 04 Jul 00:33:28 00:37:52 38° 108° (ESE) 00:42:21 437.505
BUGSAT 1 04 Jul 00:35:41 00:38:50 19° 250° (WSW) 00:41:52 437.445
ITUPSAT 1 04 Jul 00:38:23 00:42:48 38° 108° (ESE) 00:47:18 437.325
PCSat 04 Jul 00:50:32 00:56:00 76° 118° (ESE) 01:01:26 145.827
Oscar 19 04 Jul 01:35:45 01:41:02 79° 79° (E) 01:46:15 437.125/150
Gurwin Techsat 1B 04 Jul 01:36:20 01:40:16 21° 87° (E) 01:44:21 435.225
KKS-1 04 Jul 01:44:27 01:48:22 31° 109° (ESE) 01:52:24 437.445
Cosmos 2491 04 Jul 01:45:06 01:53:47 57° 101° (ESE) 02:02:28 435.465 / 435.565
ITAMSAT 1 04 Jul 01:46:26 01:50:38 25° 85° (E) 01:54:56 435.822/435.867
BEESAT 04 Jul 01:55:57 02:00:12 30° 276° (W) 02:04:25 436.000
SO-50 04 Jul 02:01:12 02:05:33 60° 297° (WNW) 02:09:54 436.795
SWISSCUBE 04 Jul 02:12:24 02:15:53 19° 273° (W) 02:19:12 437.505
AIST 1 04 Jul 02:13:11 02:17:28 53° 99° (E) 02:21:45
RS-15 04 Jul 02:14:23 02:26:45 80° 239° (WSW) 02:38:53 29.354- 29.394
YUBILEINY 04 Jul 02:15:15 02:23:20 43° 91° (E) 02:31:38 435.215
ITUPSAT 1 04 Jul 02:17:23 02:20:51 19° 273° (W) 02:24:11 437.325
PCSat 04 Jul 02:37:02 02:38:51 11° 284° (WNW) 02:40:17 145.827
STARS 04 Jul 02:37:38 02:42:03 77° 103° (ESE) 02:46:33 437.465
JAS-2 04 Jul 02:49:47 02:55:00 29° 88° (E) 02:59:50 435.910
AO-7 04 Jul 03:00:28 03:06:47 25° 86° (E) 03:13:24 29.400- 29.500
Gurwin Techsat 1B 04 Jul 03:15:25 03:20:26 41° 252° (WSW) 03:25:23 435.225
Oscar 19 04 Jul 03:17:59 03:19:47 11° 244° (WSW) 03:21:14 437.125/150
KKS-1 04 Jul 03:21:41 03:25:04 20° 273° (W) 03:28:21 437.445
ITAMSAT 1 04 Jul 03:25:29 03:30:12 34° 250° (WSW) 03:34:50 435.822/435.867
MOZHAYETS 4 04 Jul 03:33:06 03:37:33 46° 106° (ESE) 03:42:02
Cosmos 2491 04 Jul 03:42:59 03:50:12 27° 265° (W) 03:57:03 435.465 / 435.565
AIST 1 04 Jul 03:54:11 03:54:42 10° 267° (W) 03:54:53
YUBILEINY 04 Jul 04:12:13 04:20:17 37° 253° (WSW) 04:28:16 435.215
HORYU 2 04 Jul 04:15:49 04:20:20 62° 255° (WSW) 04:24:44 437.375
RS-15 04 Jul 04:31:55 04:41:36 25° 214° (SW) 04:50:40 29.354- 29.394
JAS-2 04 Jul 04:34:32 04:40:12 34° 248° (WSW) 04:45:12 435.910
AO-7 04 Jul 04:51:56 05:00:10 64° 249° (WSW) 05:08:20 29.400- 29.500
Cosmos 2504 04 Jul 04:59:31 05:07:59 59° 88° (E) 05:16:46 435.465 / 435.565
MOZHAYETS 4 04 Jul 05:12:20 05:15:03 15° 271° (W) 05:17:32
CUBESAT XI-V 04 Jul 05:34:57 05:39:34 75° 104° (ESE) 05:44:15 437.345
VERMONT LUNAR 04 Jul 05:53:33 05:56:07 22° 34° (NE) 05:58:43 437.305
CUTE-I 04 Jul 05:56:17 06:01:17 39° 82° (E) 06:06:18 437.470
